Location: 22
(39.7117°N, 89.5929°W)
Time: 18:15:52
(UTC-05:00)

Gurwin Techsat 1B - Pass Details

Date: 02 April 2023
Orbit: 811 x 813 km, 98.9° (Epoch: 06 June)

Event Time Altitude Azimuth Distance (km) Brightness Sun altitude
Rises 05:04:36 0° 359° (N) 3,346 12.1 -18.7°
Reaches altitude 10° 05:07:24 10° 345° (NNW) 2,410 11.2 -18.2°
Maximum altitude 05:11:25 22° 296° (WNW) 1,697 9.9 -17.5°
Enters shadow 05:12:05 22° 285° (WNW) 1,719 9.9 -17.4°
